Time,TemperatureF,DewpointF,PressureIn,WindDirection,WindDirectionDegrees,WindSpeedMPH,WindSpeedGustMPH,Humidity,HourlyPrecipIn,Conditions,Clouds,dailyrainin,SolarRadiationWatts/m^2,SoftwareType,DateUTC
2013-01-14 00:05:00,7.0,2.8,30.52,West,268,2.0,5.0,83,0.00,,,0.00,0.0,meteohub,2013-01-14 06:05:00,
2013-01-14 00:11:00,7.2,3.4,30.53,WSW,255,3.0,6.0,84,0.00,,,0.00,0.0,meteohub,2013-01-14 06:11:00,
2013-01-14 00:17:00,7.2,3.0,30.53,WSW,256,1.0,5.0,83,0.00,,,0.00,0.0,meteohub,2013-01-14 06:17:00,
2013-01-14 00:24:00,7.2,3.0,30.53,WSW,254,1.0,5.0,83,0.00,,,0.00,0.0,meteohub,2013-01-14 06:24:00,
2013-01-14 00:30:00,7.2,3.4,30.53,WSW,247,2.0,6.0,84,0.00,,,0.00,0.0,meteohub,2013-01-14 06:30:00,
2013-01-14 00:36:00,7.2,3.4,30.53,West,265,3.0,6.0,84,0.00,,,0.00,0.0,meteohub,2013-01-14 06:36:00,
2013-01-14 00:42:00,7.2,3.4,30.53,WSW,246,1.0,5.0,84,0.00,,,0.00,0.0,meteohub,2013-01-14 06:42:00,
2013-01-14 00:48:00,7.3,3.6,30.53,SSW,212,0.0,5.0,84,0.00,,,0.00,0.0,meteohub,2013-01-14 06:48:00,
2013-01-14 00:55:00,7.3,3.6,30.54,SSW,212,1.0,5.0,84,0.00,,,0.00,0.0,meteohub,2013-01-14 06:55:00,
2013-01-14 01:01:00,7.2,3.4,30.54,SSW,211,1.0,4.0,84,0.00,,,0.00,0.0,meteohub,2013-01-14 07:01:00,
2013-01-14 01:07:00,6.8,3.0,30.54,SSW,211,0.0,3.0,84,0.00,,,0.00,0.0,meteohub,2013-01-14 07:07:00,
2013-01-14 01:13:00,6.4,2.8,30.54,SSW,211,0.0,3.0,85,0.00,,,0.00,0.0,meteohub,2013-01-14 07:13:00,
2013-01-14 01:19:00,6.4,2.8,30.54,SW,216,2.0,3.0,85,0.00,,,0.00,0.0,meteohub,2013-01-14 07:19:00,
2013-01-14 01:26:00,6.3,2.7,30.55,SW,215,1.0,4.0,85,0.00,,,0.00,0.0,meteohub,2013-01-14 07:26:00,
2013-01-14 01:32:00,6.3,3.0,30.55,SW,216,0.0,4.0,86,0.00,,,0.00,0.0,meteohub,2013-01-14 07:32:00,
2013-01-14 01:38:00,6.1,2.8,30.55,SW,215,1.0,2.0,86,0.00,,,0.00,0.0,meteohub,2013-01-14 07:38:00,
2013-01-14 01:44:00,5.9,2.7,30.55,SW,215,0.0,3.0,86,0.00,,,0.00,0.0,meteohub,2013-01-14 07:44:00,
2013-01-14 01:50:00,5.7,2.5,30.55,SW,215,1.0,3.0,86,0.00,,,0.00,0.0,meteohub,2013-01-14 07:50:00,
2013-01-14 01:57:00,5.4,2.1,30.56,SW,215,1.0,3.0,86,0.00,,,0.00,0.0,meteohub,2013-01-14 07:57:00,
2013-01-14 02:03:00,5.4,2.1,30.56,SW,215,1.0,3.0,86,0.00,,,0.00,0.0,meteohub,2013-01-14 08:03:00,
2013-01-14 02:09:00,5.2,2.1,30.56,SW,215,0.0,2.0,87,0.00,,,0.00,0.0,meteohub,2013-01-14 08:09:00,
2013-01-14 02:15:00,5.0,1.9,30.56,SW,216,0.0,2.0,87,0.00,,,0.00,0.0,meteohub,2013-01-14 08:15:00,
2013-01-14 02:21:00,4.8,1.8,30.56,SW,215,0.0,2.0,87,0.00,,,0.00,0.0,meteohub,2013-01-14 08:21:00,
2013-01-14 02:28:00,4.8,1.8,30.56,SW,216,0.0,2.0,87,0.00,,,0.00,0.0,meteohub,2013-01-14 08:28:00,
2013-01-14 02:34:00,4.6,1.6,30.57,SW,216,1.0,2.0,87,0.00,,,0.00,0.0,meteohub,2013-01-14 08:34:00,
2013-01-14 02:40:00,4.6,1.6,30.57,SW,215,0.0,2.0,87,0.00,,,0.00,0.0,meteohub,2013-01-14 08:40:00,
2013-01-14 02:46:00,4.8,2.1,30.57,SW,215,0.0,3.0,88,0.00,,,0.00,0.0,meteohub,2013-01-14 08:46:00,
2013-01-14 02:52:00,4.8,1.8,30.57,SW,215,0.0,3.0,87,0.00,,,0.00,0.0,meteohub,2013-01-14 08:52:00,
2013-01-14 02:58:00,4.8,1.8,30.56,SW,214,1.0,3.0,87,0.00,,,0.00,0.0,meteohub,2013-01-14 08:58:00,
2013-01-14 03:05:00,4.8,1.8,30.56,SW,214,0.0,3.0,87,0.00,,,0.00,0.0,meteohub,2013-01-14 09:05:00,
2013-01-14 03:11:00,4.6,1.6,30.56,SW,214,0.0,2.0,87,0.00,,,0.00,0.0,meteohub,2013-01-14 09:11:00,
2013-01-14 03:17:00,4.5,1.4,30.57,SW,214,0.0,1.0,87,0.00,,,0.00,0.0,meteohub,2013-01-14 09:17:00,
2013-01-14 03:23:00,4.3,1.2,30.56,SW,214,0.0,1.0,87,0.00,,,0.00,0.0,meteohub,2013-01-14 09:23:00,
2013-01-14 03:29:00,4.1,1.0,30.56,SW,214,0.0,1.0,87,0.00,,,0.00,0.0,meteohub,2013-01-14 09:29:00,
2013-01-14 03:35:00,4.1,1.4,30.57,SW,214,1.0,1.0,88,0.00,,,0.00,0.0,meteohub,2013-01-14 09:35:00,
2013-01-14 03:42:00,4.1,1.4,30.57,SW,214,0.0,1.0,88,0.00,,,0.00,0.0,meteohub,2013-01-14 09:42:00,
2013-01-14 03:48:00,3.9,1.2,30.57,SW,214,0.0,2.0,88,0.00,,,0.00,0.0,meteohub,2013-01-14 09:48:00,
2013-01-14 03:54:00,4.1,1.4,30.57,SW,214,2.0,2.0,88,0.00,,,0.00,0.0,meteohub,2013-01-14 09:54:00,
2013-01-14 04:00:00,4.1,1.4,30.57,WSW,254,3.0,3.0,88,0.00,,,0.00,0.0,meteohub,2013-01-14 10:00:00,
2013-01-14 04:06:00,4.3,1.6,30.56,WSW,254,0.0,5.0,88,0.00,,,0.00,0.0,meteohub,2013-01-14 10:06:00,
2013-01-14 04:13:00,4.3,1.6,30.56,WSW,251,0.0,5.0,88,0.00,,,0.00,0.0,meteohub,2013-01-14 10:13:00,
2013-01-14 04:19:00,4.5,1.8,30.56,WSW,251,0.0,5.0,88,0.00,,,0.00,0.0,meteohub,2013-01-14 10:19:00,
2013-01-14 04:25:00,4.6,1.9,30.56,WSW,249,1.0,4.0,88,0.00,,,0.00,0.0,meteohub,2013-01-14 10:25:00,
2013-01-14 04:31:00,4.6,1.9,30.56,WSW,250,0.0,4.0,88,0.00,,,0.00,0.0,meteohub,2013-01-14 10:31:00,
2013-01-14 04:37:00,4.5,1.8,30.57,WSW,249,1.0,4.0,88,0.00,,,0.00,0.0,meteohub,2013-01-14 10:37:00,
2013-01-14 04:43:00,4.5,1.8,30.57,WSW,249,0.0,4.0,88,0.00,,,0.00,0.0,meteohub,2013-01-14 10:43:00,
2013-01-14 04:50:00,4.5,1.8,30.57,WSW,249,1.0,3.0,88,0.00,,,0.00,0.0,meteohub,2013-01-14 10:50:00,
2013-01-14 04:56:00,4.5,1.8,30.58,SW,229,1.0,3.0,88,0.00,,,0.00,0.0,meteohub,2013-01-14 10:56:00,
2013-01-14 05:02:00,4.6,1.9,30.58,SW,228,0.0,4.0,88,0.00,,,0.00,0.0,meteohub,2013-01-14 11:02:00,
2013-01-14 05:08:00,4.8,2.1,30.58,SW,226,1.0,4.0,88,0.00,,,0.00,0.0,meteohub,2013-01-14 11:08:00,
2013-01-14 05:14:00,5.2,2.5,30.58,SW,224,2.0,4.0,88,0.00,,,0.00,0.0,meteohub,2013-01-14 11:14:00,
2013-01-14 05:21:00,5.2,2.5,30.59,SSW,204,2.0,4.0,88,0.00,,,0.00,0.0,meteohub,2013-01-14 11:21:00,
2013-01-14 05:27:00,5.4,2.7,30.58,SSW,211,2.0,4.0,88,0.00,,,0.00,0.0,meteohub,2013-01-14 11:27:00,
2013-01-14 05:33:00,5.4,2.7,30.59,SSW,200,1.0,4.0,88,0.00,,,0.00,0.0,meteohub,2013-01-14 11:33:00,
2013-01-14 05:39:00,5.4,2.7,30.59,SW,230,1.0,4.0,88,0.00,,,0.00,0.0,meteohub,2013-01-14 11:39:00,
2013-01-14 05:45:00,5.4,2.7,30.60,WSW,243,2.0,5.0,88,0.00,,,0.00,0.0,meteohub,2013-01-14 11:45:00,
2013-01-14 05:52:00,5.5,2.8,30.60,SSW,211,0.0,5.0,88,0.00,,,0.00,0.0,meteohub,2013-01-14 11:52:00,
2013-01-14 05:58:00,5.5,2.8,30.60,WSW,240,2.0,5.0,88,0.00,,,0.00,0.0,meteohub,2013-01-14 11:58:00,
2013-01-14 06:04:00,5.5,2.8,30.60,WSW,238,2.0,5.0,88,0.00,,,0.00,0.0,meteohub,2013-01-14 12:04:00,
2013-01-14 06:10:00,5.5,2.5,30.61,SW,230,1.0,4.0,87,0.00,,,0.00,0.0,meteohub,2013-01-14 12:10:00,
2013-01-14 06:16:00,5.5,2.5,30.61,WSW,251,2.0,4.0,87,0.00,,,0.00,0.0,meteohub,2013-01-14 12:16:00,
2013-01-14 06:23:00,5.5,2.5,30.61,WSW,250,1.0,5.0,87,0.00,,,0.00,0.0,meteohub,2013-01-14 12:23:00,
2013-01-14 06:29:00,5.4,2.3,30.61,WSW,251,0.0,5.0,87,0.00,,,0.00,0.0,meteohub,2013-01-14 12:29:00,
2013-01-14 06:35:00,5.4,2.3,30.61,WSW,250,2.0,5.0,87,0.00,,,0.00,0.0,meteohub,2013-01-14 12:35:00,
2013-01-14 06:41:00,5.4,2.3,30.61,WSW,250,2.0,3.0,87,0.00,,,0.00,0.0,meteohub,2013-01-14 12:41:00,
2013-01-14 06:47:00,5.4,2.7,30.61,WSW,250,0.0,3.0,88,0.00,,,0.00,0.0,meteohub,2013-01-14 12:47:00,
2013-01-14 06:52:00,5.5,2.8,30.62,WSW,250,0.0,2.0,88,0.00,,,0.00,0.0,meteohub,2013-01-14 12:52:00,
2013-01-14 06:58:00,5.9,3.2,30.62,WNW,291,1.0,2.0,88,0.00,,,0.00,0.0,meteohub,2013-01-14 12:58:00,
2013-01-14 07:04:00,6.3,3.6,30.62,West,279,1.0,5.0,88,0.00,,,0.00,0.0,meteohub,2013-01-14 13:04:00,
2013-01-14 07:10:00,6.4,3.7,30.62,WSW,249,1.0,7.0,88,0.00,,,0.00,0.0,meteohub,2013-01-14 13:10:00,
2013-01-14 07:16:00,6.6,3.6,30.63,WSW,251,2.0,7.0,87,0.00,,,0.00,0.0,meteohub,2013-01-14 13:16:00,
2013-01-14 07:22:00,6.6,3.4,30.63,West,261,2.0,7.0,86,0.00,,,0.00,0.0,meteohub,2013-01-14 13:22:00,
2013-01-14 07:29:00,6.4,3.2,30.63,SW,225,2.0,6.0,86,0.00,,,0.00,0.0,meteohub,2013-01-14 13:29:00,
2013-01-14 07:35:00,6.3,3.0,30.64,West,278,5.0,6.0,86,0.00,,,0.00,0.0,meteohub,2013-01-14 13:35:00,
2013-01-14 07:41:00,6.3,3.0,30.64,NW,325,0.0,6.0,86,0.00,,,0.00,5.0,meteohub,2013-01-14 13:41:00,
2013-01-14 07:47:00,6.1,2.5,30.64,NW,325,1.0,6.0,85,0.00,,,0.00,5.0,meteohub,2013-01-14 13:47:00,
2013-01-14 07:53:00,5.9,2.3,30.64,West,272,3.0,6.0,85,0.00,,,0.00,9.0,meteohub,2013-01-14 13:53:00,
2013-01-14 07:59:00,5.7,2.1,30.64,WSW,253,1.0,6.0,85,0.00,,,0.00,11.0,meteohub,2013-01-14 13:59:00,
2013-01-14 08:06:00,5.7,2.1,30.64,WNW,301,0.0,6.0,85,0.00,,,0.00,12.0,meteohub,2013-01-14 14:06:00,
2013-01-14 08:12:00,5.5,1.9,30.65,West,265,0.0,6.0,85,0.00,,,0.00,14.0,meteohub,2013-01-14 14:12:00,
2013-01-14 08:18:00,5.5,1.9,30.66,West,265,0.0,6.0,85,0.00,,,0.00,18.0,meteohub,2013-01-14 14:18:00,
2013-01-14 08:24:00,5.4,1.8,30.66,WSW,248,4.0,6.0,85,0.00,,,0.00,23.0,meteohub,2013-01-14 14:24:00,
2013-01-14 08:30:00,5.4,1.8,30.66,WNW,291,2.0,6.0,85,0.00,,,0.00,25.0,meteohub,2013-01-14 14:30:00,
2013-01-14 08:36:00,5.4,1.8,30.67,WNW,288,0.0,6.0,85,0.00,,,0.00,39.0,meteohub,2013-01-14 14:36:00,
2013-01-14 08:43:00,5.5,1.9,30.67,West,280,1.0,7.0,85,0.00,,,0.00,62.0,meteohub,2013-01-14 14:43:00,
2013-01-14 08:49:00,5.9,2.1,30.67,WNW,286,2.0,7.0,84,0.00,,,0.00,76.0,meteohub,2013-01-14 14:49:00,
2013-01-14 08:55:00,6.3,2.5,30.67,West,274,8.0,8.0,84,0.00,,,0.00,81.0,meteohub,2013-01-14 14:55:00,
2013-01-14 09:01:00,6.4,2.7,30.68,WNW,289,0.0,9.0,84,0.00,,,0.00,114.0,meteohub,2013-01-14 15:01:00,
2013-01-14 09:07:00,6.6,2.5,30.68,West,267,1.0,9.0,83,0.00,,,0.00,121.0,meteohub,2013-01-14 15:07:00,
2013-01-14 09:13:00,6.8,3.0,30.68,West,267,4.0,9.0,84,0.00,,,0.00,60.0,meteohub,2013-01-14 15:13:00,
2013-01-14 09:20:00,6.4,2.3,30.68,West,273,3.0,9.0,83,0.00,,,0.00,44.0,meteohub,2013-01-14 15:20:00,
2013-01-14 09:26:00,6.4,2.3,30.69,West,265,6.0,9.0,83,0.00,,,0.00,104.0,meteohub,2013-01-14 15:26:00,
2013-01-14 09:32:00,6.6,2.5,30.69,WSW,250,5.0,9.0,83,0.00,,,0.00,183.0,meteohub,2013-01-14 15:32:00,
2013-01-14 09:38:00,7.2,3.0,30.69,West,263,2.0,9.0,83,0.00,,,0.00,225.0,meteohub,2013-01-14 15:38:00,
2013-01-14 09:44:00,7.5,3.2,30.68,WSW,237,0.0,7.0,82,0.00,,,0.00,178.0,meteohub,2013-01-14 15:44:00,
2013-01-14 09:50:00,8.1,3.7,30.68,West,262,3.0,7.0,82,0.00,,,0.00,271.0,meteohub,2013-01-14 15:50:00,
2013-01-14 09:57:00,8.6,3.9,30.68,West,261,2.0,7.0,81,0.00,,,0.00,253.0,meteohub,2013-01-14 15:57:00,
2013-01-14 10:03:00,9.1,4.5,30.68,West,281,4.0,8.0,81,0.00,,,0.00,202.0,meteohub,2013-01-14 16:03:00,
2013-01-14 10:09:00,9.1,3.9,30.68,NW,319,3.0,8.0,79,0.00,,,0.00,244.0,meteohub,2013-01-14 16:09:00,
2013-01-14 10:15:00,9.3,4.1,30.69,West,263,1.0,8.0,79,0.00,,,0.00,274.0,meteohub,2013-01-14 16:15:00,
2013-01-14 10:21:00,9.5,3.7,30.69,WSW,242,3.0,9.0,77,0.00,,,0.00,200.0,meteohub,2013-01-14 16:21:00,
2013-01-14 10:27:00,9.5,3.7,30.69,West,277,2.0,9.0,77,0.00,,,0.00,294.0,meteohub,2013-01-14 16:27:00,
2013-01-14 10:34:00,9.7,3.9,30.68,West,262,4.0,8.0,77,0.00,,,0.00,309.0,meteohub,2013-01-14 16:34:00,
2013-01-14 10:40:00,10.0,4.3,30.68,West,259,6.0,12.0,77,0.00,,,0.00,325.0,meteohub,2013-01-14 16:40:00,
2013-01-14 10:46:00,10.2,3.9,30.68,West,269,5.0,12.0,75,0.00,,,0.00,336.0,meteohub,2013-01-14 16:46:00,
2013-01-14 10:52:00,10.4,4.1,30.68,WSW,257,5.0,16.0,75,0.00,,,0.00,343.0,meteohub,2013-01-14 16:52:00,
2013-01-14 10:58:00,10.4,4.1,30.68,WSW,239,0.0,11.0,75,0.00,,,0.00,350.0,meteohub,2013-01-14 16:58:00,
2013-01-14 11:04:00,10.6,4.3,30.68,WSW,257,4.0,11.0,75,0.00,,,0.00,359.0,meteohub,2013-01-14 17:04:00,
2013-01-14 11:11:00,10.9,4.3,30.67,NNW,336,4.0,11.0,74,0.00,,,0.00,376.0,meteohub,2013-01-14 17:11:00,
2013-01-14 11:17:00,10.8,3.7,30.67,WSW,244,6.0,11.0,73,0.00,,,0.00,387.0,meteohub,2013-01-14 17:17:00,
2013-01-14 11:23:00,10.9,4.3,30.67,SSE,157,1.0,11.0,74,0.00,,,0.00,394.0,meteohub,2013-01-14 17:23:00,
2013-01-14 11:29:00,11.5,4.5,30.66,WSW,258,8.0,11.0,73,0.00,,,0.00,392.0,meteohub,2013-01-14 17:29:00,
2013-01-14 11:35:00,11.5,4.3,30.66,South,186,2.0,11.0,72,0.00,,,0.00,446.0,meteohub,2013-01-14 17:35:00,
2013-01-14 11:41:00,11.8,4.3,30.66,West,263,6.0,10.0,71,0.00,,,0.00,309.0,meteohub,2013-01-14 17:41:00,
2013-01-14 11:47:00,11.7,4.1,30.66,West,265,1.0,10.0,71,0.00,,,0.00,278.0,meteohub,2013-01-14 17:47:00,
2013-01-14 11:52:00,11.8,4.3,30.66,West,278,9.0,10.0,71,0.00,,,0.00,341.0,meteohub,2013-01-14 17:52:00,
2013-01-14 11:58:00,11.8,3.9,30.66,West,275,6.0,10.0,70,0.00,,,0.00,309.0,meteohub,2013-01-14 17:58:00,
2013-01-14 12:04:00,11.7,3.7,30.66,West,265,4.0,10.0,70,0.00,,,0.00,338.0,meteohub,2013-01-14 18:04:00,
2013-01-14 12:10:00,11.8,4.3,30.65,WSW,250,4.0,10.0,71,0.00,,,0.00,279.0,meteohub,2013-01-14 18:10:00,
2013-01-14 12:16:00,12.0,4.1,30.65,WNW,289,4.0,10.0,70,0.00,,,0.00,297.0,meteohub,2013-01-14 18:16:00,
2013-01-14 12:23:00,12.4,4.5,30.65,West,275,4.0,10.0,70,0.00,,,0.00,527.0,meteohub,2013-01-14 18:23:00,
2013-01-14 12:29:00,12.7,4.8,30.65,WSW,246,5.0,10.0,70,0.00,,,0.00,383.0,meteohub,2013-01-14 18:29:00,
2013-01-14 12:35:00,13.1,4.8,30.64,SW,227,3.0,10.0,69,0.00,,,0.00,483.0,meteohub,2013-01-14 18:35:00,
2013-01-14 12:41:00,13.3,4.6,30.64,West,280,8.0,10.0,68,0.00,,,0.00,394.0,meteohub,2013-01-14 18:41:00,
2013-01-14 12:47:00,13.3,4.5,30.64,WSW,240,3.0,10.0,67,0.00,,,0.00,422.0,meteohub,2013-01-14 18:47:00,
2013-01-14 12:52:00,13.5,4.6,30.64,WSW,257,3.0,11.0,67,0.00,,,0.00,385.0,meteohub,2013-01-14 18:52:00,
2013-01-14 12:58:00,13.5,4.8,30.64,WNW,297,1.0,11.0,68,0.00,,,0.00,448.0,meteohub,2013-01-14 18:58:00,
2013-01-14 13:04:00,13.6,5.0,30.63,SW,229,3.0,11.0,68,0.00,,,0.00,436.0,meteohub,2013-01-14 19:04:00,
2013-01-14 13:10:00,14.0,5.0,30.63,WSW,238,2.0,9.0,67,0.00,,,0.00,406.0,meteohub,2013-01-14 19:10:00,
2013-01-14 13:16:00,14.0,5.0,30.63,WSW,244,3.0,10.0,67,0.00,,,0.00,403.0,meteohub,2013-01-14 19:16:00,
2013-01-14 13:22:00,14.2,5.0,30.63,SW,223,2.0,10.0,66,0.00,,,0.00,396.0,meteohub,2013-01-14 19:22:00,
2013-01-14 13:29:00,14.4,5.0,30.63,WNW,288,6.0,9.0,66,0.00,,,0.00,388.0,meteohub,2013-01-14 19:29:00,
2013-01-14 13:35:00,14.2,5.0,30.63,West,265,3.0,10.0,66,0.00,,,0.00,378.0,meteohub,2013-01-14 19:35:00,
2013-01-14 13:41:00,14.2,5.0,30.64,WSW,248,2.0,10.0,66,0.00,,,0.00,288.0,meteohub,2013-01-14 19:41:00,
2013-01-14 13:47:00,14.5,5.2,30.64,WNW,293,3.0,10.0,66,0.00,,,0.00,357.0,meteohub,2013-01-14 19:47:00,
2013-01-14 13:53:00,14.4,4.8,30.64,West,271,2.0,10.0,65,0.00,,,0.00,357.0,meteohub,2013-01-14 19:53:00,
2013-01-14 13:59:00,14.5,5.0,30.64,West,262,6.0,7.0,65,0.00,,,0.00,309.0,meteohub,2013-01-14 19:59:00,
2013-01-14 14:06:00,14.2,4.3,30.64,WSW,246,2.0,11.0,64,0.00,,,0.00,253.0,meteohub,2013-01-14 20:06:00,
2013-01-14 14:12:00,14.4,4.8,30.64,SW,236,4.0,11.0,65,0.00,,,0.00,264.0,meteohub,2013-01-14 20:12:00,
2013-01-14 14:18:00,14.0,4.1,30.64,SSW,206,2.0,11.0,64,0.00,,,0.00,311.0,meteohub,2013-01-14 20:18:00,
2013-01-14 14:24:00,14.4,5.0,30.64,SW,215,6.0,11.0,66,0.00,,,0.00,278.0,meteohub,2013-01-14 20:24:00,
2013-01-14 14:30:00,14.7,4.8,30.64,SW,229,1.0,6.0,64,0.00,,,0.00,299.0,meteohub,2013-01-14 20:30:00,
2013-01-14 14:37:00,14.7,4.8,30.64,WSW,242,2.0,7.0,64,0.00,,,0.00,206.0,meteohub,2013-01-14 20:37:00,
2013-01-14 14:43:00,14.5,4.3,30.64,WSW,239,2.0,7.0,63,0.00,,,0.00,183.0,meteohub,2013-01-14 20:43:00,
2013-01-14 14:49:00,14.2,4.3,30.64,NW,321,0.0,7.0,64,0.00,,,0.00,151.0,meteohub,2013-01-14 20:49:00,
2013-01-14 14:55:00,14.4,4.8,30.64,West,273,2.0,7.0,65,0.00,,,0.00,216.0,meteohub,2013-01-14 20:55:00,
2013-01-14 15:01:00,14.7,4.8,30.64,WNW,285,3.0,7.0,64,0.00,,,0.00,206.0,meteohub,2013-01-14 21:01:00,
2013-01-14 15:07:00,14.7,4.8,30.64,SSW,203,3.0,8.0,64,0.00,,,0.00,229.0,meteohub,2013-01-14 21:07:00,
2013-01-14 15:14:00,14.7,4.5,30.64,SSW,202,1.0,8.0,63,0.00,,,0.00,214.0,meteohub,2013-01-14 21:14:00,
2013-01-14 15:20:00,14.7,4.8,30.64,WNW,292,2.0,8.0,64,0.00,,,0.00,209.0,meteohub,2013-01-14 21:20:00,
2013-01-14 15:26:00,14.9,4.6,30.64,West,265,2.0,5.0,63,0.00,,,0.00,192.0,meteohub,2013-01-14 21:26:00,
2013-01-14 15:32:00,15.1,4.5,30.64,West,273,0.0,5.0,62,0.00,,,0.00,178.0,meteohub,2013-01-14 21:32:00,
2013-01-14 15:38:00,15.1,4.8,30.64,WNW,296,0.0,6.0,63,0.00,,,0.00,158.0,meteohub,2013-01-14 21:38:00,
2013-01-14 15:44:00,15.3,4.6,30.64,WSW,255,1.0,4.0,62,0.00,,,0.00,134.0,meteohub,2013-01-14 21:44:00,
2013-01-14 15:51:00,15.1,4.5,30.64,WSW,256,1.0,4.0,62,0.00,,,0.00,69.0,meteohub,2013-01-14 21:51:00,
2013-01-14 15:57:00,14.4,4.1,30.63,WSW,256,0.0,5.0,63,0.00,,,0.00,28.0,meteohub,2013-01-14 21:57:00,
2013-01-14 16:03:00,14.0,4.1,30.64,WSW,256,0.0,5.0,64,0.00,,,0.00,26.0,meteohub,2013-01-14 22:03:00,
2013-01-14 16:09:00,13.8,4.3,30.64,WSW,256,0.0,3.0,65,0.00,,,0.00,26.0,meteohub,2013-01-14 22:09:00,
2013-01-14 16:15:00,13.6,3.7,30.64,WSW,256,0.0,3.0,64,0.00,,,0.00,25.0,meteohub,2013-01-14 22:15:00,
2013-01-14 16:21:00,13.5,3.9,30.64,WSW,252,2.0,3.0,65,0.00,,,0.00,21.0,meteohub,2013-01-14 22:21:00,
2013-01-14 16:28:00,13.3,3.7,30.64,WSW,250,1.0,3.0,65,0.00,,,0.00,19.0,meteohub,2013-01-14 22:28:00,
2013-01-14 16:34:00,13.1,3.9,30.64,WSW,250,2.0,3.0,66,0.00,,,0.00,16.0,meteohub,2013-01-14 22:34:00,
2013-01-14 16:40:00,12.9,4.1,30.64,WSW,250,0.0,3.0,67,0.00,,,0.00,14.0,meteohub,2013-01-14 22:40:00,
2013-01-14 16:46:00,12.7,3.9,30.64,WSW,250,0.0,3.0,67,0.00,,,0.00,11.0,meteohub,2013-01-14 22:46:00,
2013-01-14 16:52:00,12.6,4.1,30.64,WSW,250,2.0,3.0,68,0.00,,,0.00,9.0,meteohub,2013-01-14 22:52:00,
2013-01-14 16:58:00,12.4,4.1,30.64,WSW,250,0.0,3.0,69,0.00,,,0.00,5.0,meteohub,2013-01-14 22:58:00,
2013-01-14 17:05:00,12.2,3.9,30.64,WSW,250,0.0,3.0,69,0.00,,,0.00,0.0,meteohub,2013-01-14 23:05:00,
2013-01-14 17:11:00,12.0,4.1,30.64,WSW,250,2.0,4.0,70,0.00,,,0.00,0.0,meteohub,2013-01-14 23:11:00,
2013-01-14 17:17:00,11.8,3.6,30.64,SSW,207,3.0,4.0,69,0.00,,,0.00,0.0,meteohub,2013-01-14 23:17:00,
2013-01-14 17:23:00,11.7,3.4,30.65,SSW,195,2.0,4.0,69,0.00,,,0.00,0.0,meteohub,2013-01-14 23:23:00,
2013-01-14 17:29:00,11.7,3.4,30.64,SSW,192,1.0,5.0,69,0.00,,,0.00,0.0,meteohub,2013-01-14 23:29:00,
2013-01-14 17:35:00,11.5,3.6,30.64,South,169,3.0,5.0,70,0.00,,,0.00,0.0,meteohub,2013-01-14 23:35:00,
2013-01-14 17:42:00,11.5,3.6,30.64,South,179,2.0,5.0,70,0.00,,,0.00,0.0,meteohub,2013-01-14 23:42:00,
2013-01-14 17:48:00,11.5,3.9,30.64,South,176,2.0,7.0,71,0.00,,,0.00,0.0,meteohub,2013-01-14 23:48:00,
2013-01-14 17:54:00,11.5,4.3,30.65,South,178,1.0,7.0,72,0.00,,,0.00,0.0,meteohub,2013-01-14 23:54:00,
2013-01-14 18:00:00,11.5,3.9,30.65,South,178,0.0,7.0,71,0.00,,,0.00,0.0,meteohub,2013-01-15 00:00:00,
2013-01-14 18:06:00,11.3,4.1,30.65,South,178,0.0,4.0,72,0.00,,,0.00,0.0,meteohub,2013-01-15 00:06:00,
2013-01-14 18:12:00,11.1,4.1,30.65,South,181,2.0,4.0,73,0.00,,,0.00,0.0,meteohub,2013-01-15 00:12:00,
2013-01-14 18:19:00,11.1,4.5,30.65,South,179,2.0,5.0,74,0.00,,,0.00,0.0,meteohub,2013-01-15 00:19:00,
2013-01-14 18:25:00,10.9,4.3,30.64,SSW,207,4.0,5.0,74,0.00,,,0.00,0.0,meteohub,2013-01-15 00:25:00,
2013-01-14 18:31:00,10.9,4.3,30.64,SSW,203,2.0,5.0,74,0.00,,,0.00,0.0,meteohub,2013-01-15 00:31:00,
2013-01-14 18:37:00,10.9,4.6,30.64,SSW,203,3.0,5.0,75,0.00,,,0.00,0.0,meteohub,2013-01-15 00:37:00,
2013-01-14 18:43:00,11.1,4.8,30.64,South,180,3.0,4.0,75,0.00,,,0.00,0.0,meteohub,2013-01-15 00:43:00,
2013-01-14 18:50:00,11.3,5.0,30.64,South,172,1.0,4.0,75,0.00,,,0.00,0.0,meteohub,2013-01-15 00:50:00,
2013-01-14 18:56:00,11.5,5.2,30.63,South,180,1.0,4.0,75,0.00,,,0.00,0.0,meteohub,2013-01-15 00:56:00,
2013-01-14 19:02:00,11.5,5.2,30.63,South,171,2.0,5.0,75,0.00,,,0.00,0.0,meteohub,2013-01-15 01:02:00,
2013-01-14 19:08:00,11.5,5.2,30.63,SSW,197,5.0,5.0,75,0.00,,,0.00,0.0,meteohub,2013-01-15 01:08:00,
2013-01-14 19:14:00,11.7,5.4,30.63,SSW,194,3.0,6.0,75,0.00,,,0.00,0.0,meteohub,2013-01-15 01:14:00,
2013-01-14 19:20:00,11.5,5.2,30.63,South,175,5.0,6.0,75,0.00,,,0.00,0.0,meteohub,2013-01-15 01:20:00,
2013-01-14 19:27:00,11.5,5.2,30.62,South,172,2.0,6.0,75,0.00,,,0.00,0.0,meteohub,2013-01-15 01:27:00,
2013-01-14 19:33:00,11.3,5.2,30.63,South,182,2.0,6.0,76,0.00,,,0.00,0.0,meteohub,2013-01-15 01:33:00,
2013-01-14 19:39:00,11.1,5.0,30.62,South,180,0.0,6.0,76,0.00,,,0.00,0.0,meteohub,2013-01-15 01:39:00,
2013-01-14 19:45:00,10.9,4.8,30.62,South,180,0.0,4.0,76,0.00,,,0.00,0.0,meteohub,2013-01-15 01:45:00,
2013-01-14 19:51:00,10.8,4.6,30.62,South,180,1.0,4.0,76,0.00,,,0.00,0.0,meteohub,2013-01-15 01:51:00,
2013-01-14 19:57:00,10.6,4.8,30.62,South,180,1.0,3.0,77,0.00,,,0.00,0.0,meteohub,2013-01-15 01:57:00,
2013-01-14 20:04:00,10.6,4.8,30.62,South,180,0.0,3.0,77,0.00,,,0.00,0.0,meteohub,2013-01-15 02:04:00,
2013-01-14 20:10:00,10.6,5.0,30.62,South,180,0.0,3.0,78,0.00,,,0.00,0.0,meteohub,2013-01-15 02:10:00,
2013-01-14 20:16:00,10.6,5.4,30.61,South,180,2.0,3.0,79,0.00,,,0.00,0.0,meteohub,2013-01-15 02:16:00,
2013-01-14 20:22:00,10.8,5.5,30.61,South,180,2.0,3.0,79,0.00,,,0.00,0.0,meteohub,2013-01-15 02:22:00,
2013-01-14 20:28:00,10.9,5.7,30.61,South,180,2.0,3.0,79,0.00,,,0.00,0.0,meteohub,2013-01-15 02:28:00,
2013-01-14 20:35:00,11.1,5.9,30.61,South,180,1.0,3.0,79,0.00,,,0.00,0.0,meteohub,2013-01-15 02:35:00,
2013-01-14 20:41:00,11.3,6.1,30.61,South,179,2.0,3.0,79,0.00,,,0.00,0.0,meteohub,2013-01-15 02:41:00,
2013-01-14 20:47:00,11.5,5.9,30.61,South,178,2.0,6.0,78,0.00,,,0.00,0.0,meteohub,2013-01-15 02:47:00,
2013-01-14 20:53:00,11.7,6.1,30.61,South,178,2.0,6.0,78,0.00,,,0.00,0.0,meteohub,2013-01-15 02:53:00,
2013-01-14 20:59:00,11.7,6.1,30.60,South,178,1.0,6.0,78,0.00,,,0.00,0.0,meteohub,2013-01-15 02:59:00,
2013-01-14 21:05:00,11.7,6.1,30.60,South,174,3.0,4.0,78,0.00,,,0.00,0.0,meteohub,2013-01-15 03:05:00,
2013-01-14 21:12:00,11.8,6.3,30.60,South,182,4.0,4.0,78,0.00,,,0.00,0.0,meteohub,2013-01-15 03:12:00,
2013-01-14 21:17:00,11.8,6.3,30.59,South,173,2.0,5.0,78,0.00,,,0.00,0.0,meteohub,2013-01-15 03:17:00,
2013-01-14 21:22:00,11.8,6.3,30.59,South,172,1.0,5.0,78,0.00,,,0.00,0.0,meteohub,2013-01-15 03:22:00,
2013-01-14 21:28:00,11.8,6.3,30.59,South,172,3.0,6.0,78,0.00,,,0.00,0.0,meteohub,2013-01-15 03:28:00,
2013-01-14 21:34:00,11.8,6.3,30.59,South,180,1.0,5.0,78,0.00,,,0.00,0.0,meteohub,2013-01-15 03:34:00,
2013-01-14 21:40:00,11.7,6.4,30.59,South,169,0.0,5.0,79,0.00,,,0.00,0.0,meteohub,2013-01-15 03:40:00,
2013-01-14 21:46:00,11.5,6.3,30.58,South,169,2.0,5.0,79,0.00,,,0.00,0.0,meteohub,2013-01-15 03:46:00,
2013-01-14 21:53:00,11.1,5.9,30.58,SSE,165,3.0,5.0,79,0.00,,,0.00,0.0,meteohub,2013-01-15 03:53:00,
2013-01-14 21:59:00,10.9,5.9,30.58,SSE,154,3.0,4.0,80,0.00,,,0.00,0.0,meteohub,2013-01-15 03:59:00,
2013-01-14 22:05:00,10.9,5.9,30.58,SSE,161,3.0,4.0,80,0.00,,,0.00,0.0,meteohub,2013-01-15 04:05:00,
2013-01-14 22:11:00,10.8,5.9,30.57,SSE,159,3.0,5.0,80,0.00,,,0.00,0.0,meteohub,2013-01-15 04:11:00,
2013-01-14 22:17:00,10.8,5.9,30.57,SSE,167,1.0,5.0,80,0.00,,,0.00,0.0,meteohub,2013-01-15 04:17:00,
2013-01-14 22:23:00,10.6,5.9,30.57,South,173,3.0,5.0,81,0.00,,,0.00,0.0,meteohub,2013-01-15 04:23:00,
2013-01-14 22:30:00,10.6,6.3,30.57,SSE,157,3.0,6.0,82,0.00,,,0.00,0.0,meteohub,2013-01-15 04:30:00,
2013-01-14 22:36:00,10.8,6.4,30.57,South,181,2.0,7.0,82,0.00,,,0.00,0.0,meteohub,2013-01-15 04:36:00,
2013-01-14 22:42:00,10.8,6.4,30.57,South,173,5.0,7.0,82,0.00,,,0.00,0.0,meteohub,2013-01-15 04:42:00,
2013-01-14 22:48:00,10.8,6.4,30.57,SSE,161,2.0,7.0,82,0.00,,,0.00,0.0,meteohub,2013-01-15 04:48:00,
2013-01-14 22:54:00,10.8,6.4,30.57,SE,143,3.0,8.0,82,0.00,,,0.00,0.0,meteohub,2013-01-15 04:54:00,
2013-01-14 23:00:00,10.6,6.3,30.57,SSE,157,3.0,8.0,82,0.00,,,0.00,0.0,meteohub,2013-01-15 05:00:00,
2013-01-14 23:05:00,10.6,6.3,30.57,SSE,154,3.0,8.0,82,0.00,,,0.00,0.0,meteohub,2013-01-15 05:05:00,
2013-01-14 23:09:00,10.4,6.1,30.56,SSE,154,7.0,7.0,82,0.00,,,0.00,0.0,meteohub,2013-01-15 05:09:00,
2013-01-14 23:15:00,10.4,6.3,30.56,SSE,163,3.0,9.0,83,0.00,,,0.00,0.0,meteohub,2013-01-15 05:15:00,
2013-01-14 23:19:00,10.4,6.3,30.56,SSE,150,2.0,9.0,83,0.00,,,0.00,0.0,meteohub,2013-01-15 05:19:00,
2013-01-14 23:25:00,10.2,6.1,30.56,SSE,165,3.0,7.0,83,0.00,,,0.00,0.0,meteohub,2013-01-15 05:25:00,
2013-01-14 23:31:00,10.2,6.4,30.56,SSE,166,4.0,7.0,84,0.00,,,0.00,0.0,meteohub,2013-01-15 05:31:00,
2013-01-14 23:37:00,10.2,6.4,30.56,SSE,165,3.0,9.0,84,0.00,,,0.00,0.0,meteohub,2013-01-15 05:37:00,
2013-01-14 23:44:00,10.2,6.4,30.56,SSE,159,4.0,9.0,84,0.00,,,0.00,0.0,meteohub,2013-01-15 05:44:00,
2013-01-14 23:50:00,10.2,6.4,30.56,SSE,165,5.0,9.0,84,0.00,,,0.00,0.0,meteohub,2013-01-15 05:50:00,
2013-01-14 23:56:00,10.0,6.4,30.56,SSE,165,5.0,7.0,85,0.00,,,0.00,0.0,meteohub,2013-01-15 05:56:00,